Richmond, VA

2:51 PM EDT on May 28, 2017 (GMT -0400)
Richmond International

Weather History for KRIC - January, 2013

Change the Weather History Date:

Thursday, January 24, 2013

  Actual Average Record
Temperature  
Mean Temperature 26 °F 38 °F  
Max Temperature 32 °F 48 °F 76 °F (1950)
Min Temperature 19 °F 28 °F 5 °F (1936)
Degree Days  
Heating Degree Days 39 27  
Month to date heating degree days 569 648  
Since 1 July heating degree days 1883 2067  
Cooling Degree Days 0 0  
Month to date cooling degree days 0 0  
Year to date cooling degree days 0 0  
Moisture  
Dew Point 13 °F    
Average Humidity 58    
Maximum Humidity 88    
Minimum Humidity 28    
Precipitation  
Precipitation T in 0.10 in 1.78 in (1940)
Month to date precipitation 4.24 2.35  
Year to date precipitation 4.24 2.35  
Snow  
Snow 0.20 in 0.10 in 19.90 in (1940)
Month to date snowfall 1.8 2.8  
Since 1 July snowfall 1.8 5.1  
Snow Depth 0.00 in    
Sea Level Pressure  
Sea Level Pressure 30.29 in    
Wind  
Wind Speed 11 mph (North)    
Max Wind Speed 25 mph    
Max Gust Speed 33 mph    
Visibility 8 miles    
Events Snow    
T = Trace of Precipitation, MM = Missing Value Source: NWS Daily Summary

Daily Weather History Graph

Daily Weather History Graph

Search for Another Location

Airport or City:

Trip Planner

Search our weather history database for the weather conditions in past years. The results will help you decide how hot, cold, wet, or windy it might be!

Date:

Astronomy

Jan. 24, 2013 Rise Set
Actual Time 7:18 AM EST 5:24 PM EST
Civil Twilight 6:50 AM EST 5:52 PM EST
Nautical Twilight 6:18 AM EST 6:24 PM EST
Astronomical Twilight 5:47 AM EST 6:55 PM EST
Moon 3:25 PM EST (1/24) 5:13 AM EST (1/24)
Length of Visible Light 11h 02m
Length of Day
10h 06m
Waxing Gibbous, 94% of the Moon is Illuminated
Jan 24
Waxing Gibbous
Jan 26
Full
Feb 3
Last Quarter
Feb 10
New
Feb 17
First Quarter

Hourly Weather History & Observations

Time (EST) Temp. Windchill Dew Point Humidity Pressure Visibility Wind Dir Wind Speed Gust Speed Precip Events Conditions
12:54 AM 28.9 °F 20.4 °F 18.0 °F 64% 30.10 in 10.0 mi NNE 9.2 mph - 0.00 in Snow Light Snow
1:54 AM 28.0 °F 20.8 °F 21.9 °F 78% 30.06 in 10.0 mi NE 6.9 mph - 0.00 in Snow Light Snow
2:54 AM 27.0 °F 19.5 °F 23.0 °F 85% 30.04 in 9.0 mi NNE 6.9 mph - 0.00 in Snow Light Snow
3:26 AM 26.6 °F 16.2 °F 23.0 °F 86% 30.02 in 9.0 mi North 11.5 mph - 0.00 in Snow Light Snow
3:54 AM 26.1 °F 16.2 °F 23.0 °F 88% 30.05 in 9.0 mi North 10.4 mph - 0.00 in Snow Light Snow
4:54 AM 25.0 °F 15.5 °F 21.0 °F 85% 30.08 in 3.0 mi North 9.2 mph - 0.00 in Snow Light Snow
5:16 AM 24.8 °F 16.1 °F 21.2 °F 86% 30.06 in 3.0 mi North 8.1 mph - 0.00 in Snow Light Snow
5:54 AM 24.1 °F 12.5 °F 21.0 °F 88% 30.11 in 3.0 mi North 12.7 mph - 0.00 in Snow Light Snow
6:06 AM 24.8 °F 14.0 °F 21.2 °F 86% 30.09 in 2.0 mi North 11.5 mph - 0.00 in Snow Light Snow
6:26 AM 24.8 °F 14.6 °F 21.2 °F 86% 30.11 in 4.0 mi North 10.4 mph - 0.00 in Snow Light Snow
6:54 AM 24.1 °F 13.7 °F 19.9 °F 84% 30.15 in 7.0 mi North 10.4 mph - 0.00 in Snow Light Snow
7:43 AM 23.0 °F 11.7 °F 19.4 °F 86% 30.17 in 10.0 mi North 11.5 mph - 0.00 in   Overcast
7:54 AM 21.9 °F 10.4 °F 19.0 °F 89% 30.20 in 10.0 mi North 11.5 mph - 0.00 in   Overcast
8:54 AM 23.0 °F 10.6 °F 19.0 °F 85% 30.27 in 2.5 mi North 13.8 mph 19.6 mph 0.00 in Snow Light Snow
9:15 AM 23.0 °F 11.1 °F 17.6 °F 80% 30.27 in 4.0 mi North 12.7 mph - 0.00 in Snow Light Snow
9:39 AM 23.0 °F 11.1 °F 15.8 °F 74% 30.29 in 10.0 mi North 12.7 mph 23.0 mph 0.00 in   Mostly Cloudy
9:54 AM 24.1 °F 10.6 °F 16.0 °F 71% 30.33 in 10.0 mi North 17.3 mph - 0.00 in   Mostly Cloudy
10:54 AM 25.0 °F 13.1 °F 14.0 °F 63% 30.37 in 10.0 mi North 13.8 mph - N/A   Mostly Cloudy
11:45 AM 26.6 °F 16.2 °F 12.2 °F 55% 30.36 in 10.0 mi NNW 11.5 mph 23.0 mph N/A   Mostly Cloudy
11:54 AM 27.0 °F 13.9 °F 12.0 °F 53% 30.39 in 10.0 mi North 18.4 mph 23.0 mph N/A   Mostly Cloudy
12:54 PM 28.0 °F 16.1 °F 9.0 °F 45% 30.40 in 10.0 mi NNW 16.1 mph 21.9 mph N/A   Mostly Cloudy
1:54 PM 28.9 °F 15.8 °F 5.0 °F 36% 30.40 in 10.0 mi NW 20.7 mph 31.1 mph N/A   Mostly Cloudy
2:54 PM 30.9 °F 18.4 °F 3.0 °F 31% 30.42 in 10.0 mi NW 20.7 mph 28.8 mph N/A   Mostly Cloudy
3:54 PM 30.0 °F 18.3 °F 1.0 °F 29% 30.45 in 10.0 mi North 17.3 mph 27.6 mph N/A   Scattered Clouds
4:54 PM 28.0 °F 17.0 °F -0.0 °F 30% 30.47 in 10.0 mi North 13.8 mph - N/A   Scattered Clouds
5:54 PM 26.1 °F 16.2 °F -0.0 °F 32% 30.50 in 10.0 mi North 10.4 mph - N/A   Scattered Clouds
6:54 PM 24.1 °F 16.0 °F 1.9 °F 38% 30.53 in 10.0 mi North 6.9 mph - N/A   Partly Cloudy
7:54 PM 21.9 °F 13.4 °F 1.0 °F 40% 30.56 in 10.0 mi NNW 6.9 mph - N/A   Partly Cloudy
8:54 PM 21.0 °F 16.2 °F 3.0 °F 46% 30.56 in 10.0 mi NNW 3.5 mph - N/A   Partly Cloudy
9:54 PM 19.9 °F 12.1 °F 3.9 °F 50% 30.56 in 10.0 mi North 5.8 mph - N/A   Partly Cloudy
10:54 PM 21.0 °F 16.2 °F 3.0 °F 46% 30.57 in 10.0 mi NW 3.5 mph - N/A   Partly Cloudy
11:54 PM 19.0 °F 11.1 °F 5.0 °F 54% 30.56 in 10.0 mi North 5.8 mph - N/A   Clear